Content
SEND FEEDBACK

Daily
Averages
Monthly
Summary
United States of America

DAHLONEGA, GEORGIA


Home > North America > United States > Georgia
Elevation: 1414 feet     Latitude: 34 32N     Longitude: 083 59W

WEATHER
 
SELECT A DAY
Number of Records: 204,285;   Date Range: 7/1/96 - 9/3/14
 
SHARE

PRINT THIS DATA

[ ← Previous Day ]
WEATHER ALMANAC - JANUARY 22, 2013
[ Next Day → ]
[ °C ]   °F
Weather ElementAverageHighLow
Temperature34.3 °F43 °F (2:53 pm)28 °F (7:53 am)
Dewpoint10.8 °F14 °F (1:53 am)8.1 °F (10:53 am)
Humidity38.7 %51 % (4:53 am)27 % (2:53 pm)
Barometer30.23 in30.30 in (7:53 pm)30.12 in (1:53 am)
Wind Speed9.8 mph16.1 mph (4:53 pm)
Wind Gust21.9 mph (6:53 pm)
Weather ElementAverage
Visibility10 mi
Wind DirectionWNW (289.6 °)

Weather ElementTotal
Precipitation---
Heating Degree Days29.5 (Base 65)
Averaged from 23 records on January 22, 2013
WEATHER CONDITIONS BREAKOUT
WIND DIRECTION BREAKOUT
WEATHER BY HOUR - JANUARY 22, 2013
[ °C ]   °F
Local TimeTemperatureDewpointHumidityBarometerVisibilityWind DirectionWind SpeedGust SpeedPrecipitationEventsConditions
1:53 AM34.0 °F14.0 °F44 %30.12 in10.0 miWest (280°)8.1 mphClear
2:53 AM33.1 °F14.0 °F46 %30.13 in10.0 miWNW (300°)11.5 mphClear
3:53 AM32.0 °F12.9 °F45 %30.13 in10.0 miWNW (300°)11.5 mphClear
4:53 AM30.0 °F14.0 °F51 %30.14 in10.0 miWNW (290°)9.2 mphClear
5:53 AM28.9 °F12.0 °F49 %30.16 in10.0 miWNW (290°)10.4 mphClear
6:53 AM28.9 °F10.9 °F47 %30.18 in10.0 miWNW (300°)12.7 mphClear
7:53 AM28.0 °F10.0 °F47 %30.21 in10.0 miNW (320°)9.2 mphClear
8:53 AM30.0 °F9.0 °F41 %30.24 in10.0 miNW (320°)13.8 mph17.3 mphClear
9:53 AM32.0 °F9.0 °F38 %30.27 in10.0 miWNW (300°)11.5 mph19.6 mphClear
10:53 AM35.1 °F8.1 °F33 %30.29 in10.0 miNW (310°)10.4 mphClear
11:53 AM37.0 °F10.0 °F33 %30.28 in10.0 miNNW (330°)10.4 mphClear
12:53 PM39.9 °F9.0 °F28 %30.26 in10.0 miNW (310°)10.4 mphClear
1:53 PM41.0 °F10.0 °F28 %30.23 in10.0 miWest (280°)9.2 mph16.1 mphClear
2:53 PM43.0 °F10.9 °F27 %30.22 in10.0 miWNW (290°)6.9 mphClear
3:53 PM43.0 °F12.0 °F28 %30.23 in10.0 miWSW (250°)11.5 mphClear
4:53 PM39.9 °F10.9 °F31 %30.26 in10.0 miWSW (250°)16.1 mph20.7 mphClear
5:53 PM36.0 °F9.0 °F33 %30.26 in10.0 miWest (260°)12.7 mphClear
6:53 PM34.0 °F9.0 °F35 %30.29 in10.0 miWest (270°)10.4 mph21.9 mphClear
7:53 PM34.0 °F10.0 °F37 %30.30 in10.0 miWNW (290°)10.4 mphClear
8:53 PM32.0 °F10.9 °F42 %30.30 in10.0 miWest (260°)3.5 mphClear
9:53 PM33.1 °F12.0 °F42 %30.30 in10.0 miWNW (290°)4.6 mphOvercast
10:53 PM32.0 °F10.9 °F42 %30.29 in10.0 miWNW (300°)4.6 mphOvercast
11:53 PM32.0 °F10.9 °F42 %30.29 in10.0 miWest (270°)6.9 mphScattered Clouds
Hourly data recorded from KGVL, located miles away from Dahlonega, Georgia







STORIES FROM OUR PARTNERS